Pocatello, ID

7:06 PM MDT on May 22, 2017 (GMT -0600)
Pocatello Regional

Weather History for KPIH - April, 2014

Change the Weather History Date:

Tuesday, April 15, 2014

  Actual Average Record
Temperature  
Mean Temperature 50 °F 45 °F  
Max Temperature 63 °F 58 °F 78 °F (1985)
Min Temperature 36 °F 33 °F 21 °F (1995)
Degree Days  
Heating Degree Days 15 20  
Month to date heating degree days 289 318  
Since 1 July heating degree days 6000 6430  
Cooling Degree Days 0 0  
Month to date cooling degree days 0 0  
Year to date cooling degree days 0 0  
Moisture  
Dew Point 15 °F    
Average Humidity 31    
Maximum Humidity 48    
Minimum Humidity 14    
Precipitation  
Precipitation 0.00 in 0.04 in 0.56 in (1991)
Month to date precipitation 0.38 0.54  
Year to date precipitation 4.38 3.76  
Snow  
Snow 0.00 in - - ()
Month to date snowfall 3.3  
Since 1 July snowfall 29.4  
Snow Depth 0.00 in    
Sea Level Pressure  
Sea Level Pressure 29.85 in    
Wind  
Wind Speed 21 mph (SSW)    
Max Wind Speed 47 mph    
Max Gust Speed 54 mph    
Visibility 10 miles    
Events      
T = Trace of Precipitation, MM = Missing Value Source: NWS Daily Summary

Daily Weather History Graph

Daily Weather History Graph

Search for Another Location

Airport or City:

Trip Planner

Search our weather history database for the weather conditions in past years. The results will help you decide how hot, cold, wet, or windy it might be!

Date:

Astronomy

Apr. 15, 2014 Rise Set
Actual Time 6:48 AM MDT 8:12 PM MDT
Civil Twilight 6:19 AM MDT 8:42 PM MDT
Nautical Twilight 5:43 AM MDT 9:18 PM MDT
Astronomical Twilight 5:06 AM MDT 9:55 PM MDT
Moon 8:59 PM MDT (4/15) 6:58 AM MDT (4/15)
Length of Visible Light 14h 23m
Length of Day
13h 24m
Full, 100% of the Moon is Illuminated
Apr 15
Full
Apr 22
Last Quarter
Apr 29
New
May 6
First Quarter
May 14
Full

Hourly Weather History & Observations

Time (MDT) Temp. Windchill Dew Point Humidity Pressure Visibility Wind Dir Wind Speed Gust Speed Precip Events Conditions
12:53 AM 46.9 °F - 10.0 °F 22% 30.04 in 10.0 mi South 19.6 mph - N/A   Clear
1:53 AM 48.9 °F - 12.0 °F 23% 30.01 in 10.0 mi South 17.3 mph - N/A   Clear
2:53 AM 50.0 °F - 10.9 °F 21% 29.98 in 10.0 mi South 16.1 mph - N/A   Clear
3:53 AM 48.9 °F - 10.9 °F 22% 29.95 in 10.0 mi South 10.4 mph - N/A   Clear
4:53 AM 48.9 °F - 10.9 °F 22% 29.93 in 10.0 mi South 18.4 mph - N/A   Clear
5:53 AM 48.9 °F - 10.0 °F 21% 29.91 in 10.0 mi South 15.0 mph - N/A   Clear
6:53 AM 48.9 °F - 8.1 °F 19% 29.89 in 10.0 mi South 15.0 mph - N/A   Clear
7:53 AM 51.1 °F - 9.0 °F 18% 29.88 in 10.0 mi SSE 10.4 mph - N/A   Partly Cloudy
8:53 AM 54.0 °F - 9.0 °F 17% 29.87 in 10.0 mi South 15.0 mph - N/A   Mostly Cloudy
9:53 AM 57.0 °F - 9.0 °F 15% 29.83 in 10.0 mi South 24.2 mph 32.2 mph N/A   Partly Cloudy
10:53 AM 61.0 °F - 10.0 °F 13% 29.80 in 10.0 mi South 21.9 mph 35.7 mph N/A   Mostly Cloudy
11:53 AM 62.1 °F - 15.1 °F 16% 29.78 in 10.0 mi SW 28.8 mph 38.0 mph N/A   Mostly Cloudy
12:53 PM 61.0 °F - 17.1 °F 18% 29.79 in 10.0 mi WSW 33.4 mph 42.6 mph N/A   Widespread Dust
1:53 PM 60.1 °F - 15.1 °F 17% 29.78 in 7.0 mi WSW 35.7 mph 48.3 mph N/A   Widespread Dust
2:53 PM 57.9 °F - 18.0 °F 21% 29.77 in 10.0 mi West 36.8 mph 43.7 mph N/A   Widespread Dust
3:53 PM 57.9 °F - 21.9 °F 25% 29.75 in 10.0 mi WSW 36.8 mph 48.3 mph N/A   Widespread Dust
4:53 PM 57.9 °F - 21.0 °F 24% 29.73 in 9.0 mi WSW 43.7 mph 50.6 mph N/A   Widespread Dust
5:53 PM 57.0 °F - 21.0 °F 25% 29.73 in 5.0 mi WSW 42.6 mph 51.8 mph N/A   Haze
6:53 PM 54.0 °F - 21.0 °F 28% 29.74 in 10.0 mi WSW 32.2 mph 47.2 mph N/A   Widespread Dust
7:53 PM 50.0 °F - 19.9 °F 31% 29.77 in 10.0 mi WSW 25.3 mph 33.4 mph N/A   Widespread Dust
8:53 PM 46.9 °F - 21.0 °F 36% 29.83 in 10.0 mi NNE 8.1 mph - N/A   Widespread Dust
9:53 PM 42.1 °F 40.2 °F 19.0 °F 40% 29.88 in 10.0 mi ESE 3.5 mph - N/A   Widespread Dust
10:53 PM 41.0 °F 38.0 °F 19.9 °F 43% 29.89 in 10.0 mi SE 4.6 mph - N/A   Widespread Dust
11:53 PM 37.0 °F 32.4 °F 19.0 °F 48% 29.92 in 10.0 mi North 5.8 mph - N/A   Widespread Dust